sat.trackr.live / text

‹ back to catalog

STARLINK-37062

NORAD 68087 · 2026-042U

PAYLOAD ACTIVE UNKNOWN

§ Identity

Operator
Country
US
Launch date
2026-03-04
Launch site
AFETR
Launch vehicle
Mass (kg)
RCS (m²)

Purposes: comms

External: N2YO · Heavens-Above · Gunter

§ Orbital elements

Epoch: 2026-05-24T19:40:30.788256Z

Period
93.85 min
Inclination
53.1588°
Eccentricity
0.0000465
Mean motion
15.34407951 rev/d
Perigee alt
462.4 km
Apogee alt
463.0 km
Semi-major
6,840.8 km
B*
5.5926e-4
RAAN
184.1954°
Arg perigee
100.9554°
Mean anomaly
259.1501°
Rev number
1,397

§ Raw data

STARLINK-370621 68087U 26042U   26144.81980079  .00018571  00000+0  55926-3 0  99932 68087  53.1588 184.1954 0000465 100.9554 259.1501 15.34407951 13974

JSON: /api/v1/satellites/68087 · /tle

For live sub-satellite position, see the globe view (requires WebGL).

§ Visibility from observer

Set your observer location to see the next 7 days of passes ≥ 10°. The values pass through the URL so the page stays shareable.

No JS? Fill the form by hand. The geolocation button needs JavaScript.